Location: Unspecified
(35.6961°N, 0.0000°E)
Time: 01:02:43
(UTC+00:00)

S-56A Canister/Altair - Pass Details

Date: 01 October 2020
Orbit: 632 x 2500 km, 38.9° (Epoch: 20 October)

Event Time Altitude Azimuth Distance (km) Brightness Sun altitude
Rises 17:46:03 0° 285° (WNW) 6,165 13.9 -1.4°
Reaches altitude 10° 17:50:14 10° 286° (WNW) 5,085 13.2 -2.2°
Maximum altitude 18:04:45 90° 30° (NNE) 2,019 9.7 -5.2°
Drops below altitude 10° 18:14:57 10° 109° (ESE) 3,710 10.4 -7.3°
Enters shadow 18:15:54 - 109° (ESE) 3,983 10.6 -7.5°
